Theta_e
345 341 344 346 347 343 346 346 347 348 347 347 349 350 348 346 342 343 341 341 339 337 338 338 337 336 336 339 342 344 345 344 342 342 343 344 344 346 344 344 349 348 348
347 346 343 341 343 344 341 340 345 346 347 345 347 348 349 348 343 345 344 344 343 338 340 339 342 340 334 336 341 341 341 340 344 346 346 346 345 342 343 341 349 348 347
345 346 345 341 341 341 340 341 341 343 345 348 347 349 347 345 345 343 345 345 344 344 347 347 345 344 338 337 340 342 339 336 339 340 339 337 335 335 337 336 342 348 345
343 343 344 343 340 341 341 341 341 343 346 346 347 348 347 346 346 346 346 345 346 344 345 343 346 345 341 339 339 339 342 344 346 345 341 341 339 338 342 342 340 332 330
342 340 339 341 344 343 343 346 343 342 343 346 346 348 349 346 345 345 347 348 348 348 348 349 343 344 346 343 345 347 348 349 350 348 348 348 347 342 337 338 339 336 331
339 339 337 336 337 337 340 345 344 344 344 345 344 345 348 349 350 346 345 343 344 347 347 346 346 347 342 341 345 348 349 348 348 346 348 346 349 349 348 348 346 342 343
339 341 338 343 339 338 339 337 338 342 345 346 347 347 346 346 348 351 348 347 344 340 342 346 344 345 348 348 347 346 345 345 346 347 346 351 352 350 346 348 349 347 344
339 340 341 345 344 342 339 339 337 340 344 345 346 347 348 346 347 347 348 351 350 345 343 344 345 347 348 349 350 351 349 350 349 348 347 347 347 347 346 347 346 345 340
329 330 332 333 337 339 341 343 343 340 340 341 343 342 346 347 346 346 347 347 349 350 349 348 347 346 346 347 347 345 347 347 346 345 344 342 341 341 341 340 339 346 346
327 326 325 327 328 325 324 324 328 330 337 341 344 344 344 346 346 346 346 346 347 348 349 349 348 347 348 346 347 347 346 344 345 344 344 345 346 345 345 347 347 345 344
323 323 324 324 323 323 320 319 320 326 328 333 337 340 341 341 342 343 346 347 348 348 348 349 349 349 350 350 349 349 349 349 350 350 351 350 349 347 346 347 347 348 348
314 316 318 320 321 322 323 322 320 320 325 330 335 332 331 332 332 334 339 342 345 346 347 348 348 348 348 349 349 349 349 349 351 352 351 351 351 351 351 350 349 348 348
309 310 311 313 315 317 319 320 322 322 321 321 323 326 328 326 325 323 322 323 325 334 332 333 339 341 343 348 350 350 349 349 349 347 347 347 348 349 349 350 350 350 350
309 310 311 312 313 315 317 318 319 321 322 322 322 321 321 321 320 319 320 320 321 322 321 322 323 323 323 323 329 342 346 346 345 340 334 336 340 344 347 349 349 348 347
306 307 308 309 310 312 314 316 317 319 319 319 320 321 321 321 321 320 320 320 319 320 321 321 321 321 322 323 323 322 323 326 323 324 326 329 338 345 347 349 350 350 350
304 305 305 305 305 306 307 307 308 311 315 317 318 320 320 320 320 320 320 320 320 319 319 320 321 321 321 321 321 322 324 324 325 326 333 339 341 344 345 346 349 350 350
302 301 301 302 302 302 302 303 303 303 304 306 309 312 313 317 319 319 319 318 318 319 319 319 320 320 320 321 322 322 321 323 324 323 324 331 339 341 343 344 345 347 348
299 300 300 300 300 300 301 301 301 302 302 303 303 303 304 305 306 308 309 313 315 316 318 319 320 320 320 322 322 324 324 317 313 313 314 316 320 323 335 342 343 343 344
299 299 299 299 299 299 300 300 300 300 301 301 302 302 302 302 303 303 303 305 309 313 314 314 316 318 320 323 324 325 325 324 321 319 316 313 313 315 320 323 331 341 343
299 299 299 299 299 299 299 299 300 300 300 300 300 300 301 301 302 302 302 302 302 304 310 313 316 318 320 322 324 325 325 323 323 321 319 319 316 313 313 320 324 331 338
299 299 298 298 299 298 298 298 298 299 299 299 299 299 299 299 299 299 300 300 301 302 302 306 313 315 316 317 318 319 320 322 321 320 319 319 318 316 314 312 320 325 329
299 298 299 299 299 298 298 298 298 298 297 297 298 298 298 298 298 298 298 298 299 299 301 301 302 307 311 312 313 314 314 318 318 318 318 318 318 318 316 314 312 321 327
298 299 299 299 298 298 297 297 297 296 296 296 296 296 296 296 297 297 297 298 297 296 295 297 299 302 305 307 308 309 310 312 313 314 315 316 317 317 317 315 312 312 325
299 300 300 299 298 297 297 296 296 295 295 295 294 294 294 294 294 295 295 296 296 294 295 296 297 299 300 301 302 304 307 309 310 310 312 312 313 314 315 314 311 311 319
301 300 300 300 298 297 297 296 295 295 294 294 293 293 293 293 293 293 293 293 293 293 293 294 296 297 297 298 298 299 301 305 306 307 308 309 310 312 313 311 310 310 322
302 301 300 300 298 297 296 296 295 295 295 294 294 293 293 293 293 292 292 292 291 292 293 294 295 296 297 297 298 299 301 303 304 305 307 308 309 310 310 311 313 315 321
Wind_Speed
22 22 27 23 19 16 16 12 13 14 14 12 12 12 13 13 14 15 15 15 19 16 16 16 17 17 16 13 12 11 11 13 15 14 14 15 16 17 17 18 14 12 12
22 21 24 26 23 21 18 16 16 17 16 14 14 13 13 14 14 15 13 13 13 16 15 18 16 16 18 16 15 14 15 15 16 18 19 21 23 23 23 20 13 11 14
10 12 19 21 22 20 21 22 21 20 18 16 15 14 12 13 13 13 12 11 12 15 14 13 14 14 16 17 16 17 18 17 17 19 21 25 26 21 19 18 16 17 19
18 10 10 16 21 20 21 23 21 21 21 18 17 16 16 15 14 15 14 14 13 13 14 16 14 11 9 9 10 10 9 10 12 14 16 17 18 17 17 18 18 20 20
18 5 13 24 17 14 15 22 26 26 23 23 21 19 19 19 20 18 20 18 19 19 18 18 17 17 14 11 11 11 14 16 17 17 18 21 19 18 17 19 20 21 19
15 15 16 8 20 23 18 22 15 24 23 22 26 26 23 22 21 20 21 23 23 23 23 21 20 19 18 18 19 17 17 18 17 19 22 23 23 22 21 22 21 22 25
24 20 15 16 12 12 20 18 19 19 17 18 21 24 26 25 24 23 22 24 24 25 24 24 22 22 21 21 21 22 23 24 25 26 23 22 23 21 24 23 23 24 27
17 15 14 15 16 17 12 10 21 20 24 16 18 20 22 24 25 25 26 27 27 27 26 25 26 25 23 23 23 24 24 23 23 24 26 28 28 27 27 26 27 29 30
13 10 10 9 8 8 9 9 14 16 21 22 21 20 21 20 23 24 26 28 30 30 29 29 29 30 29 26 27 29 29 29 26 27 28 29 30 30 29 28 28 29 33
7 6 6 7 7 7 7 5 3 4 6 9 11 17 19 15 17 23 26 29 30 30 28 30 29 30 31 32 33 33 33 33 31 33 33 32 30 29 27 26 26 28 29
2 2 2 3 4 4 3 2 3 4 4 2 0 2 6 8 10 16 18 19 22 24 25 25 25 29 31 33 33 33 34 33 32 33 34 34 34 33 31 29 28 29 30
10 9 9 8 8 7 6 5 5 4 5 5 5 3 1 2 4 4 7 10 12 14 17 18 21 25 25 29 29 29 30 30 30 31 33 35 35 37 36 33 32 30 29
7 10 11 11 11 10 9 9 9 8 8 8 8 9 8 8 8 9 9 10 12 13 13 14 16 20 18 16 18 25 25 25 27 31 33 36 33 32 34 37 37 37 38
5 5 7 9 11 11 11 10 10 10 10 10 11 13 12 12 14 14 14 16 16 17 17 17 17 17 18 18 19 21 22 23 24 28 29 29 26 27 28 24 25 25 28
4 4 4 5 5 7 10 11 11 11 12 11 12 13 15 17 16 15 18 20 21 21 22 21 20 20 20 19 19 19 19 21 21 21 22 22 21 21 23 23 24 23 24
2 2 3 3 4 5 6 5 9 11 13 15 16 18 17 20 21 23 23 23 25 26 26 26 25 22 22 23 23 22 20 20 20 19 17 17 20 21 23 24 23 25 27
0 1 4 5 6 7 8 9 8 5 8 12 17 22 26 31 33 33 32 32 32 29 28 28 29 28 26 26 27 25 23 22 23 23 24 23 21 21 21 24 25 25 28
4 5 5 6 8 9 10 12 14 15 15 14 14 16 19 23 26 28 30 32 33 32 32 32 31 29 29 28 28 28 26 24 23 24 25 25 24 25 25 23 23 27 28
4 5 6 8 10 12 13 14 15 17 18 20 20 20 22 23 24 24 25 26 28 29 29 31 32 30 29 28 31 31 31 29 28 28 27 28 27 27 27 28 27 25 27
4 6 7 10 13 15 16 18 19 20 22 23 25 28 30 30 31 30 30 29 27 28 27 25 23 24 26 28 31 33 33 32 31 31 31 31 32 31 29 30 30 28 28
2 4 7 9 12 16 19 21 22 24 25 26 27 28 29 33 35 37 35 35 35 34 31 30 30 32 34 34 35 34 33 33 35 34 33 34 35 36 36 34 33 32 32
0 3 6 10 14 17 20 23 23 24 25 27 29 30 29 29 32 35 37 38 38 37 34 31 33 37 40 42 41 39 37 37 34 35 38 39 40 41 42 42 40 35 32
2 2 7 11 15 19 22 23 24 25 25 26 28 30 32 33 34 36 38 38 37 37 37 35 36 36 34 40 47 48 47 45 44 42 43 47 48 48 48 49 47 43 36
5 4 7 11 15 20 22 22 23 24 25 26 28 29 31 32 34 35 36 37 37 36 35 32 33 33 40 46 45 46 51 50 47 46 47 51 53 52 52 52 51 47 41
5 7 8 10 13 19 20 20 21 22 23 25 26 28 30 32 34 35 36 35 35 35 37 35 35 38 43 44 44 47 54 54 51 48 47 46 49 53 54 52 50 47 41
6 7 8 9 11 16 18 18 20 21 22 23 25 27 30 32 33 34 34 33 32 32 32 34 37 38 40 41 42 41 40 40 42 43 42 45 48 50 49 46 43 41 40
Wind_Direction
233 236 234 237 236 238 236 234 227 227 232 239 246 252 258 257 246 236 236 239 239 238 244 251 255 259 261 264 270 283 294 298 297 301 307 312 315 317 328 332 342 340 333
231 239 239 238 242 244 247 244 246 246 245 242 245 253 258 254 251 243 240 240 253 246 249 250 255 257 253 256 267 281 289 293 296 298 302 306 307 309 311 314 317 333 332
202 235 238 240 241 249 251 251 251 257 262 255 254 260 263 252 253 248 239 243 250 251 255 255 257 264 255 257 267 278 287 289 290 297 303 304 306 309 309 306 298 312 320
203 212 234 238 238 244 250 254 253 255 256 261 257 255 259 257 260 253 251 249 251 254 265 260 258 261 259 254 261 274 281 289 296 298 305 315 318 322 320 320 306 308 313
231 253 267 245 228 247 265 252 250 250 252 256 262 261 260 262 261 264 255 259 260 261 265 270 267 257 254 241 244 257 274 286 292 293 304 311 317 321 324 325 320 317 317
193 200 244 203 247 270 255 250 258 244 249 253 254 258 262 260 261 263 260 261 260 263 264 262 266 266 263 262 260 268 274 282 282 287 299 300 305 310 317 318 320 323 321
200 209 218 222 207 266 281 251 253 257 244 253 259 258 258 258 258 260 259 262 266 265 265 270 266 260 265 267 269 270 270 269 277 284 285 290 299 304 309 308 308 307 308
138 159 154 188 219 227 236 243 249 242 249 267 269 255 255 259 260 260 261 262 261 261 263 266 265 261 257 261 266 269 273 274 274 277 282 285 290 295 297 300 299 299 300
114 118 123 130 143 155 191 213 234 236 247 259 259 259 260 258 259 257 258 261 262 263 266 266 266 267 267 268 272 271 270 270 274 278 282 285 286 287 288 287 285 292 296
120 120 126 138 147 150 155 171 212 242 250 261 267 257 273 279 279 268 261 261 265 265 267 265 266 267 269 269 267 270 272 275 281 283 282 282 281 280 280 282 289 290 294
252 229 225 222 219 204 184 193 168 143 138 112 188 290 302 317 308 292 268 278 275 269 272 273 273 270 265 264 269 269 271 276 276 278 281 282 282 281 281 280 282 289 292
265 261 260 256 254 248 236 241 247 224 210 185 178 185 299 338 352 335 285 284 285 287 287 285 282 277 270 268 268 270 271 272 276 279 281 284 287 288 287 286 286 286 286
265 258 255 254 256 256 250 245 244 247 248 251 250 252 256 274 280 282 289 293 300 296 298 296 296 304 304 284 278 280 277 275 280 282 283 286 288 293 289 284 281 283 285
294 278 263 261 256 255 258 258 259 258 254 259 267 271 276 278 279 276 277 284 287 286 290 290 298 302 307 307 290 281 283 281 283 285 286 288 288 287 288 290 286 285 288
266 274 277 271 270 266 267 264 266 274 276 276 280 287 285 282 290 302 297 289 287 288 285 287 290 293 295 294 293 290 285 279 279 286 289 286 291 295 294 294 291 292 287
252 272 288 302 307 297 282 266 279 271 272 273 278 281 280 283 283 284 286 287 287 288 289 291 292 296 299 299 296 293 288 285 283 286 289 291 295 297 296 296 291 287 282
138 330 328 329 329 325 321 313 295 271 273 270 270 270 274 277 276 278 280 282 284 286 287 286 287 290 291 290 292 294 297 295 292 292 293 290 285 286 296 297 298 293 287
31 18 5 1 356 350 343 337 330 322 314 305 295 285 277 277 278 280 281 279 279 278 280 283 286 287 287 281 282 284 286 289 290 291 292 291 291 283 280 287 295 298 292
41 32 24 19 13 5 355 346 339 333 329 324 318 313 311 305 299 293 289 286 284 284 285 284 284 286 286 281 281 281 283 285 288 292 295 298 299 295 287 282 281 283 287
53 42 29 18 12 6 360 354 347 341 335 331 329 326 323 318 314 310 307 302 292 284 282 282 283 280 278 277 278 279 280 283 286 289 293 297 299 300 297 285 278 278 282
55 28 17 12 6 3 1 357 351 344 338 332 329 327 326 321 318 315 313 308 303 295 286 273 268 270 271 273 274 275 277 279 287 292 295 297 299 299 299 298 286 277 273
27 7 7 3 1 360 359 356 350 345 340 336 332 329 325 320 315 312 309 307 304 299 292 285 276 270 271 274 276 276 279 277 281 287 292 295 296 298 300 298 296 282 274
203 6 357 356 359 359 355 352 349 345 342 339 336 332 330 327 322 316 310 306 302 298 295 288 275 270 272 273 272 275 279 279 282 286 289 289 291 292 295 296 294 291 275
217 298 336 348 354 356 352 350 348 346 342 338 338 338 335 330 326 321 315 308 302 296 295 297 293 290 274 273 275 276 271 272 276 278 279 281 284 287 289 290 290 287 280
257 277 312 338 348 353 352 350 348 344 342 343 342 339 337 333 328 324 321 316 307 299 291 285 281 281 279 281 282 284 276 277 277 276 273 273 277 280 283 283 282 281 277
254 282 290 319 338 348 347 346 341 334 335 337 336 337 337 335 331 326 324 319 313 309 302 293 290 287 285 284 284 285 284 279 273 270 270 270 272 274 275 276 276 274 274